[[{"header":{"parameterUnit":"m.s-1","parameterCategory":1,"la1":30.2991,"la2":30.254,"lo1":-89.0895,"lo2":-89.0444,"dy":0.0017,"dx":0.0017,"nx":28,"ny":28,"refTime":"2025-07-27T21:00:00:Z","depth":0,"parameterNumber":2,"parameterNumberName":"U-component_of_WINDS"},"data":[0,0,0,0,0,0,0,0,0,0,0,0,0,0,0,0,0,0,0,0,0,0,0,0,0,0,0,0,0,0,0,0,0,0,0,0,0,0,0,0,0,0,0,0,0,0,0,0,0,0,0,0,0,0,0,0,0,0,-1.113,-1.1129,0,-1.1053,-1.1053,-1.1052,-1.0994,-1.0993,-1.0993,-1.0992,-1.0912,-1.0911,-1.0909,0,0,0,0,0,0,0,0,0,0,0,0,0,-1.1225,-1.1223,-1.113,-1.1129,-1.1128,-1.1054,-1.1052,-1.1051,-1.0994,-1.0993,-1.0993,-1.0992,-1.0913,-1.0911,-1.0909,0,0,0,0,0,0,0,0,0,0,0,0,0,-1.1169,-1.1223,-1.113,-1.109,-1.1086,-1.1054,-1.1052,-1.1051,-1.0994,-1.0993,-1.0993,-1.0992,-1.0913,-1.0911,-1.0909,-1.0909,0,0,-1.0901,-1.09,0,0,0,0,0,0,0,0,-1.1173,-1.1166,-1.1097,-1.1093,-1.1088,-1.1032,-1.1057,-1.1003,-1.0994,-1.1029,-1.0992,-1.0991,-1.0953,-1.0947,-1.0934,-1.0905,-1.0902,-1.0901,-1.0899,-1.0898,-1.0898,0,0,0,0,0,0,0,-1.1177,-1.1169,-1.1099,-1.1096,-1.1091,-1.1076,-1.1067,-1.1046,-1.0996,-1.1026,-1.1021,-1.1013,-1.095,-1.0937,-1.0932,-1.0901,-1.0901,-1.0899,-1.0897,-1.0896,-1.0869,-1.087,0,0,0,0,0,0,-1.1187,-1.1173,-1.1102,-1.1097,-1.1129,-1.1075,-1.1065,-1.1051,-1.0996,-1.0987,-1.1014,-1.1011,-1.0941,-1.0935,-1.0929,-1.0926,-1.0898,-1.0896,-1.0895,-1.0868,-1.0869,-1.087,0,0,0,0,0,0,-1.1189,-1.1181,-1.1105,-1.1134,-1.1123,-1.1074,-1.1059,-1.105,-1.1037,-1.0987,-1.0978,-1.101,-1.0941,-1.0932,-1.0915,-1.0923,-1.0895,-1.0893,-1.0868,-1.0869,-1.087,-1.0921,0,0,0,0,0,0,-1.1192,-1.1182,-1.1182,-1.1134,-1.1122,-1.1092,-1.1059,-1.1049,-1.1033,-1.1028,-1.0981,-1.0972,-1.0939,-1.0919,-1.0912,-1.0919,-1.0891,-1.0867,-1.0868,-1.0869,-1.0918,-1.0923,-1.0928,0,0,0,0,0,-1.1196,-1.1198,-1.1182,-1.1174,-1.112,-1.1093,-1.1086,-1.1048,-1.1034,-1.1033,-1.1002,-1.0974,-1.0923,-1.0917,-1.091,-1.0915,-1.0866,-1.0868,-1.0869,-1.0916,-1.0922,-1.0928,0,0,0,0,0,0,-1.1247,-1.1191,-1.1173,-1.116,-1.1132,-1.1083,-1.1081,-1.1056,-1.1031,-1.1027,-1.0982,-1.0971,-1.0959,-1.0935,-1.093,-1.0914,-1.0891,-1.0891,-1.0929,-1.0935,-1.094,-1.0945,-1.0889,0,0,0,0,0,-1.1257,-1.124,-1.1192,-1.1186,-1.1173,-1.113,-1.1116,-1.109,-1.1059,-1.1046,-1.1013,-1.0983,-1.0961,-1.0947,-1.0923,-1.0915,-1.0904,-1.0915,-1.092,-1.0925,-1.0925,-1.0919,-1.0924,-1.0876,-1.0876,-1.0876,0,0,-1.1277,-1.1245,-1.1237,-1.1196,-1.117,-1.1154,-1.112,-1.1103,-1.109,-1.1043,-1.1025,-1.1,-1.0964,-1.0951,-1.0944,-1.0931,-1.0936,-1.0927,-1.0931,-1.0928,-1.0922,-1.0926,-1.093,-1.0877,-1.0877,-1.0877,0,0,-1.1306,-1.128,-1.1272,-1.1248,-1.1211,-1.1182,-1.1181,-1.1136,-1.1118,-1.1099,-1.1065,-1.1048,-1.101,-1.0986,-1.0969,-1.0991,-1.0964,-1.0984,-1.101,-1.1005,-1.1009,-1.1012,-1.1019,-1.1023,-1.0985,-1.0985,-1.0985,0,-1.1335,-1.1308,-1.127,-1.1256,-1.1239,-1.1198,-1.119,-1.1168,-1.1125,-1.1115,-1.1102,-1.1054,-1.1026,-1.1008,-1.1014,-1.1001,-1.0998,-1.0988,-1.1011,-1.1014,-1.1016,-1.1023,-1.1026,-1.0988,-1.0988,-1.0987,-1.0987,0,-1.1347,-1.1329,-1.1327,-1.1288,-1.1271,-1.126,-1.122,-1.1208,-1.1184,-1.1157,-1.1139,-1.1105,-1.1074,-1.1068,-1.1044,-1.1047,-1.104,-1.102,-1.0996,-1.1024,-1.103,-1.1032,-1.0992,-1.0991,-1.099,-1.0989,0,0,-1.1403,-1.1345,-1.1344,-1.1326,-1.1284,-1.1269,-1.1257,-1.1228,-1.1218,-1.1191,-1.1179,-1.1149,-1.113,-1.1111,-1.1084,-1.108,-1.11,-1.1061,-1.1059,-1.1069,-1.1101,-1.1116,-1.112,-1.1083,-1.1084,-1.1084,-1.1104,0,-1.1424,-1.1399,-1.1366,-1.1352,-1.1336,-1.1298,-1.1287,-1.126,-1.1235,-1.1217,-1.1189,-1.1169,-1.1146,-1.1134,-1.1129,-1.1099,-1.1106,-1.1097,-1.1071,-1.1071,-1.1081,-1.1122,-1.1137,-1.1158,-1.1106,-1.1106,-1.1107,0,-1.1444,-1.142,-1.1405,-1.1365,-1.1357,-1.1348,-1.1319,-1.1303,-1.1272,-1.1254,-1.1234,-1.1206,-1.1191,-1.1171,-1.115,-1.1145,-1.1132,-1.1116,-1.1116,-1.1111,-1.109,-1.1118,-1.1164,-1.1167,-1.111,-1.1109,-1.1109,0,-1.1486,-1.145,-1.1437,-1.1423,-1.1376,-1.137,-1.1351,-1.1319,-1.1304,-1.1279,-1.1269,-1.1243,-1.1228,-1.1209,-1.1174,-1.1163,-1.1157,-1.1134,-1.1142,-1.1143,-1.1141,-1.1141,-1.1184,-1.1135,-1.1135,-1.1135,-1.1135,0,-1.1512,-1.1504,-1.1455,-1.1447,-1.1438,-1.14,-1.1392,-1.1368,-1.1341,-1.1327,-1.1293,-1.1281,-1.1237,-1.122,-1.1193,-1.118,-1.1174,-1.1159,-1.1151,-1.1161,-1.1163,-1.1151,-1.1149,-1.1135,-1.1135,-1.1135,-1.1135,0,-1.1556,-1.1523,-1.1506,-1.1464,-1.1454,-1.1449,-1.1412,-1.1403,-1.1377,-1.1361,-1.1355,-1.1314,-1.1293,-1.1257,-1.1225,-1.1207,-1.1199,-1.1187,-1.1209,-1.1205,-1.1214,-1.1214,-1.1251,-1.1254,-1.1203,-1.1204,-1.1204,0,-1.1575,-1.1568,-1.1526,-1.1515,-1.1497,-1.148,-1.1465,-1.1428,-1.1414,-1.1379,-1.1374,-1.1351,-1.1329,-1.1297,-1.1264,-1.124,-1.1227,-1.1242,-1.1222,-1.1233,-1.1226,-1.1227,-1.1226,-1.1245,-1.1246,-1.1247,-1.1247,0,-1.1611,-1.1595,-1.1575,-1.1551,-1.1534,-1.1513,-1.1489,-1.1482,-1.144,-1.1427,-1.1405,-1.1389,-1.1357,-1.1333,-1.1305,-1.1284,-1.1259,-1.1254,-1.1254,-1.1263,-1.1277,-1.1269,-1.122,-1.1253,-1.1252,-1.1252,-1.1251,-1.1251,-1.1642,-1.1635,-1.1604,-1.1584,-1.1563,-1.1543,-1.1532,-1.1506,-1.1487,-1.1459,-1.1439,-1.1419,-1.1389,-1.1348,-1.1329,-1.1313,-1.1301,-1.1302,-1.1302,-1.1302,-1.1306,-1.1281,-1.1308,-1.1307,-1.1307,-1.1307,-1.1307,0,-1.1675,-1.1655,-1.1637,-1.1606,-1.159,-1.1569,-1.1543,-1.1531,-1.1514,-1.1489,-1.1469,-1.1445,-1.1423,-1.139,-1.1365,-1.1358,-1.1346,-1.1353,-1.1353,-1.1348,-1.1318,-1.132,-1.1363,-1.1363,-1.1363,-1.1363,-1.1363,-1.1363,-1.1691,-1.1678,-1.1659,-1.1636,-1.1615,-1.1595,-1.1582,-1.1563,-1.1543,-1.1518,-1.15,-1.1479,-1.1451,-1.1424,-1.1403,-1.1394,-1.1386,-1.1397,-1.1384,-1.1356,-1.135,-1.1345,-1.1347,-1.1396,-1.1396,-1.1415,-1.1416,-1.1416]},{"header":{"parameterUnit":"m.s-1","parameterCategory":1,"la1":30.2991,"la2":30.254,"lo1":-89.0895,"lo2":-89.0444,"dy":0.0017,"dx":0.0017,"nx":28,"ny":28,"refTime":"2025-07-27T21:00:00:Z","depth":0,"parameterNumber":3,"parameterNumberName":"V-component_of_WINDS"},"data":[0,0,0,0,0,0,0,0,0,0,0,0,0,0,0,0,0,0,0,0,0,0,0,0,0,0,0,0,0,0,0,0,0,0,0,0,0,0,0,0,0,0,0,0,0,0,0,0,0,0,0,0,0,0,0,0,0,0,2.0316,2.0317,0,2.0341,2.0341,2.0342,2.0368,2.0368,2.0368,2.0369,2.0392,2.0392,2.0392,0,0,0,0,0,0,0,0,0,0,0,0,0,2.0288,2.0289,2.0316,2.0317,2.0317,2.0341,2.0341,2.0342,2.0368,2.0368,2.0368,2.0369,2.0392,2.0392,2.0393,0,0,0,0,0,0,0,0,0,0,0,0,0,2.0305,2.0289,2.0316,2.0333,2.0334,2.0341,2.0341,2.0342,2.0367,2.0368,2.0369,2.0369,2.0392,2.0392,2.0393,2.0384,0,0,2.0394,2.0394,0,0,0,0,0,0,0,0,2.0304,2.0306,2.033,2.0332,2.0334,2.0352,2.034,2.0356,2.0367,2.0355,2.0369,2.0369,2.0378,2.038,2.0383,2.0385,2.0386,2.0394,2.0394,2.0394,2.0394,0,0,0,0,0,0,0,2.0303,2.0306,2.0326,2.033,2.0332,2.0338,2.0341,2.0343,2.0363,2.0356,2.0358,2.0361,2.0379,2.0383,2.0384,2.0387,2.0394,2.0394,2.0395,2.0395,2.0382,2.0381,0,0,0,0,0,0,2.03,2.0304,2.0325,2.0327,2.032,2.0338,2.0341,2.0345,2.0363,2.0366,2.036,2.0362,2.0382,2.0383,2.0385,2.0375,2.0394,2.0395,2.0395,2.0383,2.0382,2.0381,0,0,0,0,0,0,2.0299,2.0302,2.0324,2.0316,2.0319,2.0338,2.0342,2.0346,2.0349,2.0366,2.037,2.036,2.0382,2.0384,2.0384,2.0376,2.0395,2.0395,2.0383,2.0382,2.0382,2.0356,0,0,0,0,0,0,2.0298,2.0301,2.0299,2.0316,2.032,2.0324,2.0342,2.0346,2.035,2.0352,2.0367,2.037,2.0383,2.0383,2.0384,2.0377,2.0396,2.0384,2.0383,2.0382,2.0358,2.0355,2.0352,0,0,0,0,0,2.0297,2.029,2.0299,2.0301,2.0317,2.0323,2.0326,2.0341,2.0349,2.0347,2.0357,2.037,2.0377,2.0383,2.0385,2.0377,2.0385,2.0383,2.0382,2.0359,2.0355,2.0352,0,0,0,0,0,0,2.0271,2.0293,2.0302,2.0301,2.031,2.0328,2.0325,2.0336,2.0343,2.0344,2.0362,2.0365,2.0363,2.037,2.0376,2.037,2.0383,2.0381,2.0365,2.0361,2.0358,2.0356,2.0396,0,0,0,0,0,2.0266,2.0269,2.0288,2.0285,2.0289,2.0306,2.0309,2.032,2.033,2.0334,2.0345,2.0353,2.0358,2.036,2.0365,2.0359,2.0362,2.0355,2.0352,2.035,2.0348,2.0344,2.0341,2.0377,2.0377,2.0377,0,0,2.0253,2.0266,2.0267,2.028,2.0289,2.0291,2.0309,2.0311,2.0313,2.0334,2.0335,2.0343,2.0354,2.035,2.035,2.0356,2.0339,2.0348,2.0346,2.0346,2.0343,2.0339,2.0336,2.0376,2.0376,2.0376,0,0,2.0233,2.0243,2.0241,2.0249,2.0262,2.0273,2.0273,2.0288,2.0295,2.0296,2.0311,2.0313,2.0321,2.0327,2.0331,2.0312,2.0323,2.0313,2.0297,2.0294,2.0291,2.0288,2.028,2.0277,2.0312,2.0312,2.0312,0,2.0216,2.0221,2.0239,2.024,2.0244,2.0264,2.0262,2.0268,2.0282,2.0284,2.0292,2.0301,2.0309,2.0307,2.0303,2.0306,2.0305,2.0311,2.029,2.0288,2.0286,2.0278,2.0275,2.0311,2.0311,2.0311,2.0311,0,2.0199,2.0202,2.0199,2.0212,2.0216,2.0216,2.0232,2.0234,2.0245,2.0255,2.0255,2.0266,2.0273,2.0273,2.0284,2.0273,2.0276,2.0287,2.03,2.028,2.0274,2.0271,2.0309,2.0309,2.031,2.031,0,0,2.0162,2.0184,2.0183,2.0188,2.0204,2.0206,2.0206,2.0213,2.0214,2.0223,2.0222,2.0227,2.0237,2.0242,2.0253,2.025,2.0232,2.026,2.0261,2.0254,2.0219,2.021,2.0207,2.024,2.024,2.0239,2.0218,0,2.0143,2.0144,2.016,2.0156,2.0158,2.0177,2.0177,2.0185,2.0195,2.0198,2.0208,2.0211,2.0224,2.0227,2.0225,2.0235,2.0225,2.0237,2.0238,2.0238,2.0234,2.0203,2.0194,2.0173,2.0215,2.0215,2.0215,0,2.012,2.0128,2.0124,2.0139,2.0141,2.014,2.0148,2.0151,2.016,2.0167,2.0172,2.0185,2.0185,2.0198,2.0197,2.0204,2.0206,2.0211,2.021,2.021,2.0224,2.0201,2.0167,2.0163,2.0211,2.0211,2.0211,0,2.0092,2.0101,2.01,2.0105,2.0122,2.0121,2.0128,2.0138,2.0141,2.0148,2.015,2.0156,2.0159,2.0163,2.0176,2.0185,2.0173,2.0188,2.0178,2.0177,2.0173,2.0173,2.0138,2.0177,2.0177,2.0177,2.0177,0,2.0068,2.0065,2.0088,2.0087,2.0083,2.0101,2.0097,2.0106,2.0115,2.0115,2.0132,2.0132,2.015,2.0152,2.0162,2.0159,2.0161,2.0165,2.0168,2.0163,2.0162,2.0163,2.0165,2.0176,2.0176,2.0176,2.0176,0,2.0035,2.0051,2.005,2.0067,2.0071,2.0068,2.0081,2.0081,2.0091,2.0091,2.0092,2.0108,2.0111,2.0125,2.0131,2.0138,2.0131,2.0137,2.0127,2.0129,2.0117,2.0118,2.0081,2.0076,2.0119,2.0118,2.0118,0,2.0019,2.0017,2.0033,2.0035,2.0041,2.0044,2.0047,2.0064,2.0066,2.0077,2.0075,2.0079,2.0083,2.0087,2.0098,2.0103,2.0108,2.0095,2.0109,2.0104,2.0106,2.0105,2.0105,2.0091,2.0091,2.009,2.009,0,1.9986,1.9994,1.9998,2.0005,2.0009,2.0015,2.0022,2.0022,2.0041,2.0043,2.0046,2.0049,2.0055,2.0059,2.0065,2.0071,2.0083,2.0086,2.0083,2.0078,2.0072,2.0073,2.0118,2.0086,2.0087,2.0087,2.0087,2.0087,1.996,1.9959,1.997,1.9974,1.9981,1.9987,1.9987,1.9997,2.0001,2.0007,2.0017,2.0019,2.0028,2.0037,2.0043,2.0044,2.0051,2.0047,2.0046,2.0045,2.0042,2.0073,2.0045,2.0045,2.0045,2.0045,2.0045,0,1.9928,1.9936,1.9939,1.9949,1.9951,1.9964,1.9972,1.9973,1.9974,1.9982,1.9986,1.9989,1.9992,2.0004,2.0009,2.0007,2.0012,2.0007,2.0007,2.0008,2.0036,2.0037,2.0003,2.0003,2.0003,2.0003,2.0003,2.0003,1.9911,1.9909,1.9917,1.9919,1.9927,1.9929,1.9932,1.9937,1.9944,1.9946,1.9949,1.9957,1.9967,1.9972,1.9975,1.9978,1.9978,1.9971,1.9976,2.0002,2.0006,2.001,2.0011,1.9971,1.9971,1.9947,1.9947,1.9947]}]]